TIANMU-1 03

Last updated on Sun Dec 21 2025 00:02:26 GMT+0000 (Coordinated Universal Time)

1 55973U 23039A 25354.61359089 .00010559 00000+0 25693-3 0 9993 2 55973 97.5105 157.4860 0004044 38.5633 321.5901 15.41136949153271
UTC large
Height (km)
Speed (km/s)
/
Latitude / Longitude
Inclination (degrees)
Orbital Period (minutes)
Azimuth
Elevation
Range (km)
Doppler Factor

Next 0 passes for location: London (51.5072 / 0.1276)

Sorry there are no passes over London.